QPF
0.04 0.18 0.09 0.56 0.50 0.18 0.18 0.29 0.29 0.41 0.32 0.31 0.32 0.30 0.10 0.00 0.00 0.00 0.00 0.00 0.00 0.00 0.00 0.00 0.00 0.00 0.00 0.00 0.00 0.00 0.00 0.00 0.00 0.00 0.00 0.00 0.00 0.00 0.00 0.00 0.00 0.00
0.08 0.09 0.16 0.31 0.49 0.59 0.66 0.58 0.43 0.39 0.28 0.28 0.19 0.18 0.12 0.04 0.00 0.00 0.00 0.00 0.00 0.00 0.00 0.00 0.00 0.00 0.00 0.00 0.00 0.00 0.00 0.00 0.00 0.00 0.00 0.00 0.00 0.00 0.00 0.00 0.00 0.00
0.06 0.17 0.17 0.29 0.46 0.23 0.04 0.03 0.21 0.26 0.29 0.07 0.05 0.07 0.06 0.06 0.01 0.01 0.00 0.00 0.00 0.00 0.00 0.00 0.00 0.00 0.00 0.00 0.00 0.00 0.00 0.00 0.00 0.00 0.00 0.00 0.00 0.00 0.00 0.00 0.00 0.00
0.07 0.10 0.13 0.09 0.28 0.39 0.21 0.07 0.11 0.19 0.30 0.31 0.21 0.10 0.07 0.16 0.08 0.01 0.01 0.00 0.00 0.00 0.00 0.00 0.00 0.01 0.00 0.00 0.00 0.00 0.00 0.00 0.00 0.00 0.00 0.00 0.00 0.00 0.00 0.00 0.00 0.00
0.03 0.05 0.10 0.10 0.19 0.41 0.71 0.69 0.47 0.41 0.30 0.29 0.39 0.45 0.50 0.35 0.36 0.07 0.01 0.01 0.01 0.01 0.01 0.01 0.01 0.01 0.01 0.01 0.00 0.00 0.00 0.00 0.00 0.00 0.00 0.01 0.00 0.00 0.00 0.00 0.00 0.00
0.02 0.11 0.11 0.20 0.19 0.40 0.59 0.40 0.23 0.35 0.57 0.42 0.91 0.99 1.21 0.84 0.76 0.59 0.18 0.10 0.04 0.02 0.03 0.02 0.02 0.01 0.01 0.00 0.00 0.00 0.01 0.00 0.00 0.00 0.00 0.00 0.00 0.00 0.00 0.00 0.00 0.00
0.02 0.05 0.06 0.03 0.15 0.38 1.13 1.06 0.59 0.96 0.65 0.55 1.10 1.10 0.91 1.34 1.40 1.64 1.13 0.76 0.36 0.33 0.12 0.04 0.02 0.02 0.01 0.01 0.01 0.01 0.01 0.01 0.00 0.00 0.00 0.00 0.00 0.00 0.00 0.00 0.00 0.00
0.00 0.03 0.01 0.02 0.06 0.28 0.82 1.18 1.36 1.73 0.81 0.24 0.86 1.31 0.86 0.77 0.50 0.60 0.37 0.69 0.52 0.35 0.39 0.24 0.23 0.47 0.44 0.36 0.23 0.07 0.03 0.01 0.01 0.01 0.00 0.00 0.00 0.00 0.00 0.00 0.00 0.00
0.07 0.06 0.05 0.02 0.05 0.16 0.42 0.96 0.95 0.85 0.76 0.58 0.66 0.65 0.41 0.32 0.35 0.47 0.43 0.26 0.42 0.76 1.07 1.24 0.94 0.66 0.51 0.50 0.31 0.23 0.15 0.05 0.00 0.00 0.01 0.01 0.00 0.00 0.00 0.00 0.00 0.00
0.05 0.02 0.12 0.05 0.05 0.18 0.66 1.32 1.03 0.73 0.26 0.31 0.33 0.60 0.28 0.16 0.15 0.13 0.37 0.30 0.25 0.25 0.36 0.47 0.30 0.39 0.26 0.27 0.15 0.24 0.34 0.33 0.24 0.13 0.07 0.01 0.00 0.00 0.00 0.00 0.00 0.00
0.04 0.03 0.08 0.14 0.09 0.21 0.70 0.51 0.67 0.77 0.52 0.33 0.35 0.35 0.63 0.23 0.25 0.19 0.12 0.27 0.19 0.14 0.26 0.12 0.06 0.25 0.32 0.30 0.32 0.27 0.20 0.16 0.12 0.10 0.15 0.02 0.01 0.00 0.00 0.00 0.00 0.00
0.01 0.02 0.05 0.07 0.09 0.11 0.56 0.87 0.81 0.69 0.77 0.36 0.23 0.23 0.25 0.06 0.03 0.02 0.03 0.04 0.03 0.07 0.21 0.13 0.11 0.08 0.12 0.14 0.24 0.32 0.26 0.19 0.15 0.11 0.02 0.06 0.01 0.01 0.00 0.00 0.00 0.00
0.02 0.01 0.04 0.02 0.06 0.09 0.49 0.95 0.84 0.37 0.26 0.09 0.10 0.18 0.06 0.09 0.09 0.11 0.02 0.02 0.02 0.03 0.13 0.19 0.12 0.39 0.36 0.14 0.03 0.04 0.06 0.06 0.11 0.10 0.10 0.12 0.02 0.00 0.00 0.00 0.00 0.00
0.01 0.02 0.07 0.10 0.16 0.22 0.32 0.96 1.18 0.87 0.32 0.35 0.31 0.34 0.08 0.08 0.08 0.05 0.02 0.01 0.02 0.01 0.03 0.18 0.07 0.01 0.01 0.06 0.07 0.10 0.13 0.19 0.20 0.18 0.14 0.15 0.16 0.08 0.04 0.00 0.00 0.00
0.02 0.01 0.02 0.12 0.11 0.17 0.15 0.83 1.03 1.08 0.78 0.28 0.55 0.49 0.29 0.12 0.07 0.08 0.03 0.02 0.01 0.01 0.07 0.13 0.11 0.01 0.02 0.02 0.01 0.00 0.02 0.03 0.04 0.10 0.15 0.16 0.08 0.10 0.08 0.06 0.00 0.00
0.01 0.02 0.03 0.03 0.06 0.15 0.17 0.46 1.02 0.28 0.59 0.93 0.84 0.38 0.20 0.36 0.43 0.55 0.58 0.24 0.14 0.05 0.09 0.17 0.30 0.49 0.03 0.00 0.00 0.02 0.01 0.02 0.00 0.00 0.01 0.04 0.03 0.05 0.06 0.02 0.01 0.01
0.09 0.03 0.00 0.02 0.07 0.18 0.19 0.31 0.86 0.67 0.48 0.40 0.41 0.61 0.63 0.48 0.31 0.52 0.49 0.60 0.41 0.43 0.64 0.46 0.24 0.34 0.19 0.01 0.00 0.00 0.01 0.00 0.01 0.00 0.00 0.00 0.01 0.01 0.02 0.01 0.01 0.00
0.07 0.04 0.04 0.04 0.03 0.08 0.29 0.66 0.73 0.63 0.46 0.44 0.43 0.44 0.60 0.71 0.70 0.55 0.64 0.56 0.53 0.50 0.49 0.38 0.49 0.52 0.47 0.39 0.11 0.00 0.00 0.02 0.03 0.01 0.01 0.02 0.02 0.01 0.03 0.06 0.01 0.01
0.20 0.02 0.02 0.05 0.19 0.06 0.25 0.42 0.71 0.88 0.39 0.47 0.40 0.51 0.72 0.70 0.15 0.49 0.88 0.75 0.45 0.39 0.59 0.47 0.41 0.52 0.76 0.97 0.54 0.13 0.00 0.00 0.00 0.08 0.12 0.03 0.02 0.01 0.00 0.00 0.00 0.00
0.10 0.07 0.01 0.01 0.08 0.12 0.27 0.33 0.67 0.83 1.02 0.70 0.85 0.76 0.51 0.85 0.92 0.70 0.55 0.93 0.54 0.21 0.25 0.28 0.37 0.39 0.34 0.35 0.11 0.11 0.04 0.00 0.00 0.01 0.00 0.00 0.01 0.01 0.01 0.00 0.00 0.00
0.04 0.01 0.01 0.01 0.02 0.04 0.03 0.19 0.24 0.64 0.55 0.50 0.40 0.46 0.53 0.83 0.90 1.10 1.19 1.05 0.78 0.53 0.47 0.50 0.46 0.42 0.58 0.62 0.57 0.52 0.28 0.12 0.02 0.01 0.01 0.00 0.00 0.01 0.01 0.01 0.00 0.01
0.00 0.01 0.03 0.00 0.01 0.03 0.02 0.06 0.15 0.20 0.22 0.72 0.34 0.27 0.33 0.47 0.46 0.42 0.39 0.44 0.68 1.05 0.60 0.56 0.55 0.43 0.44 0.55 0.61 0.67 0.86 0.40 0.08 0.03 0.07 0.03 0.01 0.00 0.00 0.00 0.00 0.00
0.00 0.00 0.00 0.02 0.02 0.01 0.03 0.04 0.10 0.19 0.35 0.42 0.73 0.80 0.60 0.48 0.45 0.38 0.53 0.57 0.56 0.53 0.66 0.62 0.53 0.42 0.42 0.45 0.48 0.51 0.90 0.65 0.63 0.61 0.92 0.58 0.58 0.41 0.33 0.08 0.01 0.00
0.00 0.00 0.00 0.00 0.00 0.00 0.01 0.01 0.01 0.03 0.23 0.46 0.44 0.41 0.52 0.70 0.43 0.64 0.66 0.68 0.68 0.54 0.44 0.40 0.70 0.53 0.36 0.34 0.37 0.21 0.09 0.15 0.31 0.39 0.54 0.94 0.65 0.47 0.40 0.32 0.26 0.20
0.00 0.00 0.00 0.00 0.00 0.00 0.00 0.02 0.03 0.02 0.04 0.11 0.15 0.15 0.42 0.57 0.86 0.36 0.37 0.22 0.19 0.25 0.32 0.35 0.39 0.32 0.20 0.16 0.22 0.16 0.14 0.08 0.05 0.05 0.18 0.16 0.16 0.15 0.29 0.31 0.48 0.71
0.00 0.00 0.00 0.00 0.00 0.00 0.00 0.00 0.05 0.01 0.03 0.08 0.04 0.12 0.19 0.12 0.32 0.58 0.54 0.39 0.44 0.14 0.24 0.08 0.15 0.22 0.19 0.25 0.27 0.16 0.13 0.15 0.21 0.10 0.07 0.04 0.03 0.02 0.03 0.10 0.24 0.46
MSLP
1008.20 1008.36 1008.56 1008.56 1008.32 1008.20 1008.24 1008.36 1008.36 1008.56 1008.68 1008.80 1009.28 1009.60 1009.08 1007.96 1007.24 1007.08 1007.16 1007.20 1007.28 1007.52 1007.64 1007.76 1007.92 1008.20 1008.36 1008.52 1008.64 1008.88 1009.24 1009.64 1010.00 1010.28 1010.68 1011.08 1011.40 1011.56 1011.76 1011.92 1012.04 1012.16
1007.76 1007.76 1007.80 1008.04 1008.00 1007.76 1007.80 1007.96 1008.00 1007.96 1007.96 1008.12 1008.44 1009.04 1009.00 1008.04 1006.92 1006.40 1006.52 1006.76 1006.92 1007.12 1007.24 1007.44 1007.60 1007.80 1008.08 1008.24 1008.32 1008.56 1008.88 1009.24 1009.72 1009.80 1010.40 1010.76 1011.04 1011.24 1011.40 1011.52 1011.72 1011.84
1007.12 1007.16 1007.32 1007.56 1007.48 1007.20 1007.04 1007.08 1007.36 1007.52 1007.48 1007.28 1007.36 1007.80 1008.08 1007.80 1006.92 1006.16 1005.84 1006.16 1006.56 1006.80 1007.00 1007.16 1007.32 1007.44 1007.68 1007.88 1008.00 1008.20 1008.48 1008.88 1009.32 1009.48 1009.92 1010.36 1010.64 1010.96 1011.08 1011.20 1011.48 1011.60
1006.56 1006.48 1006.60 1006.72 1006.76 1006.56 1006.48 1006.56 1006.68 1006.96 1007.12 1007.04 1007.00 1007.08 1007.20 1007.20 1006.84 1006.08 1005.64 1005.76 1006.28 1006.64 1006.84 1007.00 1007.12 1007.20 1007.32 1007.56 1007.76 1007.96 1008.08 1008.40 1008.72 1009.08 1009.56 1009.92 1010.24 1010.48 1010.76 1010.92 1011.12 1011.32
1005.72 1005.80 1005.84 1005.88 1006.00 1005.96 1005.92 1005.92 1005.92 1006.12 1006.56 1006.40 1006.44 1006.60 1006.96 1007.24 1007.00 1006.36 1005.92 1005.80 1006.16 1006.56 1006.76 1006.92 1007.00 1007.04 1007.08 1007.32 1007.52 1007.72 1007.80 1008.08 1008.32 1008.68 1009.16 1009.56 1009.72 1010.00 1010.24 1010.52 1010.84 1011.12
1005.12 1005.00 1005.04 1005.44 1005.60 1006.08 1005.76 1005.20 1005.24 1005.64 1006.08 1006.16 1006.08 1006.24 1006.68 1007.24 1007.44 1006.80 1006.24 1006.00 1006.12 1006.40 1006.60 1006.72 1006.80 1006.72 1006.76 1007.04 1007.24 1007.36 1007.48 1007.76 1007.92 1008.24 1008.72 1009.08 1009.32 1009.40 1009.72 1010.00 1010.36 1010.72
1004.72 1004.68 1004.56 1004.68 1005.08 1005.16 1005.08 1004.72 1004.56 1005.16 1005.80 1005.88 1005.88 1005.96 1006.12 1006.84 1006.96 1006.92 1007.04 1006.92 1006.92 1006.76 1006.44 1006.44 1006.40 1006.32 1006.24 1006.48 1006.80 1007.00 1007.08 1007.28 1007.52 1007.76 1008.12 1008.44 1008.72 1009.00 1009.12 1009.40 1009.76 1010.12
1004.32 1004.12 1004.12 1004.08 1004.20 1004.96 1005.44 1005.16 1004.56 1004.84 1005.44 1005.52 1005.28 1005.12 1005.68 1006.52 1006.96 1006.72 1006.32 1005.80 1006.28 1007.04 1007.04 1006.56 1006.04 1005.84 1005.76 1006.08 1006.52 1006.60 1006.60 1006.48 1006.76 1007.08 1007.44 1007.76 1008.12 1008.48 1008.64 1008.88 1009.28 1009.68
1004.04 1003.92 1003.84 1003.76 1003.64 1003.60 1004.20 1004.64 1004.64 1004.48 1004.68 1004.96 1005.64 1005.52 1005.32 1005.56 1005.96 1006.16 1006.24 1005.72 1005.52 1005.72 1006.36 1006.76 1006.24 1005.88 1005.48 1005.76 1006.00 1006.00 1006.08 1006.12 1006.24 1006.56 1006.88 1007.20 1007.56 1007.84 1008.08 1008.40 1008.88 1009.24
1003.88 1003.68 1003.56 1003.44 1003.28 1003.04 1002.92 1003.32 1004.28 1004.60 1004.44 1004.00 1004.48 1005.12 1005.44 1005.36 1005.20 1005.48 1005.84 1005.60 1005.32 1005.36 1005.64 1006.28 1006.28 1005.76 1005.36 1005.36 1005.64 1005.84 1006.12 1006.24 1006.20 1006.40 1006.64 1006.76 1006.84 1007.00 1007.32 1007.68 1008.12 1008.64
1003.80 1003.48 1003.32 1003.16 1002.96 1002.64 1002.72 1002.96 1003.04 1003.52 1003.76 1003.60 1003.84 1004.32 1004.80 1005.12 1004.92 1004.48 1004.88 1005.20 1005.32 1005.12 1005.16 1005.36 1005.68 1005.68 1005.40 1005.20 1005.24 1005.36 1005.60 1005.76 1005.88 1006.16 1006.52 1006.60 1006.52 1006.64 1006.84 1007.08 1007.44 1007.84
1003.72 1003.36 1003.08 1002.84 1002.64 1002.40 1002.72 1002.56 1002.76 1003.12 1003.60 1003.68 1003.28 1003.64 1004.16 1004.36 1004.04 1003.96 1004.00 1004.36 1004.48 1004.36 1004.44 1004.60 1004.44 1004.76 1005.12 1004.84 1004.76 1004.84 1005.08 1005.40 1005.48 1005.68 1005.96 1006.24 1006.56 1006.68 1006.64 1006.76 1007.04 1007.36
1003.60 1003.24 1002.84 1002.60 1002.36 1002.12 1002.64 1002.60 1002.48 1002.68 1003.16 1003.28 1003.00 1002.96 1003.24 1003.56 1003.40 1003.76 1003.72 1003.64 1003.68 1003.80 1004.00 1004.04 1003.96 1004.16 1004.96 1005.00 1004.68 1004.56 1004.64 1004.80 1005.12 1005.44 1005.72 1006.04 1006.28 1006.44 1006.36 1006.36 1006.52 1006.76
1003.44 1003.00 1002.64 1002.32 1002.04 1001.96 1002.36 1002.32 1002.16 1002.12 1002.48 1002.72 1002.64 1002.48 1002.44 1002.48 1002.64 1003.00 1003.04 1003.04 1003.04 1003.12 1003.20 1003.68 1003.60 1003.44 1003.80 1004.64 1004.56 1004.40 1004.44 1004.32 1004.40 1004.76 1005.16 1005.56 1005.88 1006.08 1006.08 1006.00 1005.96 1006.12
1003.20 1002.76 1002.36 1002.08 1001.88 1001.56 1002.16 1002.36 1002.00 1001.56 1001.48 1001.76 1001.96 1002.12 1002.16 1002.08 1002.04 1002.08 1002.24 1002.28 1002.28 1002.44 1002.52 1003.12 1003.40 1002.84 1002.60 1003.00 1003.60 1004.00 1004.12 1004.00 1003.88 1004.12 1004.60 1005.08 1005.40 1005.64 1005.80 1005.84 1005.76 1005.68
1003.00 1002.60 1002.28 1002.08 1001.76 1001.52 1001.76 1002.12 1001.84 1001.60 1001.44 1001.48 1001.80 1001.88 1001.68 1001.60 1001.56 1001.52 1001.68 1001.84 1002.00 1002.00 1002.04 1002.28 1002.76 1002.88 1002.44 1002.32 1002.56 1003.04 1003.60 1003.64 1003.64 1003.92 1004.28 1004.64 1004.96 1005.28 1005.56 1005.72 1005.72 1005.64
1002.84 1002.52 1002.28 1002.00 1001.68 1001.40 1001.48 1001.92 1002.04 1001.44 1001.12 1001.20 1001.36 1001.64 1001.72 1001.48 1001.36 1001.40 1001.56 1001.76 1002.16 1002.40 1002.36 1002.76 1002.84 1003.00 1002.84 1002.20 1002.24 1002.48 1002.76 1003.12 1003.28 1003.68 1003.96 1004.20 1004.52 1004.84 1005.16 1005.32 1005.44 1005.48
1002.84 1002.56 1002.24 1001.84 1001.56 1001.24 1001.20 1002.00 1001.84 1001.76 1001.36 1001.08 1001.08 1001.24 1001.28 1001.40 1001.36 1001.16 1001.32 1001.64 1001.92 1002.24 1002.52 1002.48 1002.64 1003.04 1003.64 1003.72 1002.84 1002.24 1002.32 1002.28 1002.52 1003.08 1003.52 1003.84 1004.16 1004.44 1004.56 1004.68 1004.88 1005.08
1002.92 1002.68 1002.36 1002.04 1001.72 1001.40 1001.08 1001.60 1001.88 1001.48 1001.16 1000.96 1000.76 1000.56 1000.76 1000.96 1001.04 1001.24 1001.36 1001.40 1001.56 1001.80 1002.24 1002.64 1002.60 1002.44 1002.80 1003.20 1003.88 1003.36 1002.56 1002.20 1002.20 1002.48 1002.92 1003.36 1003.64 1003.92 1004.04 1004.12 1004.32 1004.52
1002.96 1002.72 1002.48 1002.20 1001.80 1001.36 1001.12 1001.20 1001.64 1001.80 1001.16 1000.52 1000.44 1000.52 1000.64 1000.64 1000.64 1000.88 1001.00 1001.16 1001.24 1001.44 1001.80 1002.16 1002.28 1002.40 1002.52 1003.12 1003.56 1004.04 1003.48 1002.48 1002.16 1002.24 1002.48 1002.64 1002.88 1003.08 1003.28 1003.44 1003.52 1003.72
1003.76 1003.28 1002.88 1002.36 1001.84 1001.44 1001.12 1001.08 1001.12 1001.28 1001.24 1000.80 1000.52 1000.44 1000.36 1000.12 1000.12 1000.40 1000.56 1000.68 1000.72 1000.72 1001.08 1001.52 1001.76 1002.08 1002.52 1002.84 1003.28 1003.72 1004.52 1003.88 1002.16 1001.92 1001.96 1002.04 1002.08 1002.16 1002.28 1002.40 1002.60 1002.72
1004.20 1003.72 1003.16 1002.60 1002.00 1001.56 1001.28 1001.08 1001.16 1001.24 1001.28 1001.44 1001.12 1000.52 1000.20 1000.04 1000.04 1000.16 1000.32 1000.52 1000.56 1000.56 1000.64 1000.92 1001.00 1001.28 1001.56 1001.96 1002.44 1003.32 1003.52 1003.80 1003.80 1002.60 1002.00 1002.00 1002.04 1001.84 1001.76 1001.84 1001.88 1001.88
1004.48 1004.00 1003.48 1003.00 1002.52 1002.00 1001.60 1001.36 1001.16 1001.20 1001.20 1001.08 1000.84 1000.72 1000.68 1000.40 1000.40 1000.36 1000.36 1000.40 1000.36 1000.32 1000.48 1000.48 1000.52 1000.48 1000.60 1000.80 1001.36 1002.00 1002.72 1003.12 1003.24 1003.28 1003.28 1003.48 1003.56 1003.68 1003.44 1002.72 1002.04 1001.56
1004.64 1004.16 1003.76 1003.36 1003.00 1002.68 1002.32 1001.88 1001.40 1000.96 1000.72 1000.76 1000.96 1000.76 1000.68 1000.44 1000.52 1000.72 1000.56 1000.24 1000.20 1000.16 1000.00 1000.04 999.88 999.64 999.72 999.84 1000.12 1001.00 1001.80 1002.20 1002.20 1002.20 1002.68 1003.40 1003.68 1003.68 1003.56 1003.56 1003.48 1003.24
1005.04 1004.64 1004.28 1003.84 1003.56 1003.28 1002.92 1002.52 1001.96 1001.40 1000.84 1000.36 1000.28 1000.48 1000.28 1000.16 1000.56 1000.84 1000.52 1000.12 999.88 999.72 999.68 999.80 999.76 999.76 999.76 999.40 999.32 1000.08 1001.04 1001.76 1001.88 1001.88 1002.08 1002.48 1002.88 1003.04 1002.92 1003.00 1003.04 1003.12
1005.40 1005.04 1004.72 1004.44 1004.12 1003.64 1003.20 1002.84 1002.40 1001.76 1001.08 1000.56 1000.04 999.80 999.88 999.92 1000.12 1000.68 1001.04 1000.72 1000.28 999.76 999.48 999.44 999.52 999.56 999.68 999.72 999.40 999.52 1000.36 1001.08 1001.56 1001.92 1002.12 1002.28 1002.52 1002.72 1002.76 1002.68 1002.76 1002.96
Thickness
5643 5648 5650 5653 5657 5662 5664 5665 5667 5669 5671 5673 5671 5670 5678 5691 5702 5706 5708 5711 5713 5714 5715 5716 5715 5715 5715 5716 5717 5716 5715 5714 5712 5711 5710 5708 5707 5708 5707 5707 5707 5707
5640 5646 5649 5650 5654 5659 5662 5664 5666 5668 5671 5674 5675 5672 5675 5687 5698 5705 5708 5710 5711 5713 5714 5714 5715 5714 5713 5714 5715 5715 5714 5712 5711 5710 5709 5708 5707 5707 5707 5706 5706 5706
5639 5644 5647 5647 5650 5657 5664 5666 5666 5667 5671 5676 5679 5678 5678 5684 5694 5702 5708 5709 5708 5710 5711 5712 5712 5712 5711 5711 5712 5713 5713 5711 5710 5710 5709 5707 5706 5705 5706 5705 5704 5705
5637 5641 5645 5646 5651 5658 5664 5666 5667 5667 5670 5675 5680 5681 5680 5682 5689 5697 5702 5704 5704 5705 5707 5708 5708 5708 5709 5708 5708 5710 5711 5710 5710 5709 5707 5707 5706 5705 5705 5704 5703 5704
5634 5640 5643 5645 5649 5656 5661 5664 5667 5668 5669 5673 5677 5677 5674 5674 5679 5688 5693 5696 5698 5698 5700 5701 5702 5704 5705 5705 5705 5706 5708 5709 5708 5708 5706 5705 5706 5706 5705 5704 5703 5703
5630 5637 5641 5642 5646 5652 5659 5665 5667 5667 5667 5671 5675 5674 5671 5667 5669 5675 5679 5684 5688 5690 5693 5696 5697 5700 5702 5703 5703 5704 5706 5707 5707 5707 5705 5705 5706 5706 5706 5705 5704 5703
5625 5631 5637 5640 5645 5650 5657 5663 5666 5665 5663 5667 5671 5671 5670 5665 5664 5668 5670 5674 5677 5680 5686 5692 5695 5698 5701 5702 5701 5701 5704 5706 5707 5707 5706 5706 5706 5706 5707 5707 5706 5704
5620 5626 5632 5638 5644 5648 5650 5654 5660 5663 5662 5664 5668 5669 5668 5665 5663 5667 5671 5677 5680 5680 5682 5687 5692 5696 5700 5701 5700 5701 5705 5707 5709 5710 5709 5709 5708 5708 5708 5707 5706 5705
5614 5621 5626 5633 5642 5648 5649 5650 5653 5656 5660 5664 5663 5663 5665 5665 5666 5667 5670 5676 5682 5682 5682 5683 5687 5693 5698 5699 5699 5700 5704 5706 5709 5710 5710 5711 5710 5710 5709 5708 5706 5704
5607 5615 5621 5627 5637 5645 5649 5651 5650 5650 5657 5664 5660 5657 5660 5664 5667 5669 5669 5671 5676 5680 5680 5679 5682 5689 5695 5696 5697 5699 5700 5702 5705 5706 5705 5708 5711 5712 5712 5710 5708 5706
5598 5607 5614 5621 5631 5638 5642 5647 5650 5648 5654 5661 5660 5657 5657 5660 5665 5669 5671 5670 5672 5676 5679 5680 5684 5688 5691 5694 5696 5698 5700 5700 5702 5703 5702 5705 5707 5708 5710 5710 5710 5709
5591 5599 5608 5615 5624 5632 5636 5642 5648 5646 5648 5654 5658 5658 5656 5658 5664 5669 5672 5673 5674 5678 5680 5682 5688 5688 5687 5691 5696 5698 5699 5699 5699 5700 5701 5702 5703 5704 5705 5707 5708 5708
5584 5592 5601 5609 5618 5625 5630 5636 5643 5644 5644 5647 5653 5657 5658 5660 5664 5666 5670 5674 5676 5679 5679 5682 5689 5689 5684 5685 5690 5694 5696 5697 5697 5697 5698 5700 5700 5701 5705 5706 5707 5707
5579 5587 5595 5604 5612 5619 5624 5629 5638 5643 5644 5645 5649 5654 5658 5663 5665 5666 5669 5673 5676 5679 5681 5681 5686 5690 5688 5684 5685 5688 5691 5695 5698 5697 5698 5699 5699 5700 5703 5705 5708 5708
5574 5581 5590 5598 5606 5613 5619 5624 5632 5639 5643 5645 5646 5650 5655 5661 5665 5667 5669 5673 5677 5681 5682 5680 5681 5689 5693 5690 5688 5687 5687 5692 5698 5699 5699 5698 5698 5699 5700 5702 5705 5707
5569 5577 5585 5592 5598 5606 5613 5618 5625 5633 5639 5641 5642 5644 5650 5657 5663 5665 5667 5670 5674 5677 5681 5681 5680 5682 5687 5689 5689 5686 5685 5689 5693 5695 5696 5696 5696 5696 5696 5698 5700 5702
5564 5572 5579 5585 5592 5601 5608 5613 5619 5626 5634 5639 5639 5639 5643 5651 5658 5662 5664 5665 5667 5669 5673 5675 5674 5673 5675 5680 5685 5686 5685 5688 5690 5691 5691 5692 5693 5693 5694 5695 5697 5698
5559 5566 5573 5580 5588 5596 5603 5609 5613 5619 5627 5633 5635 5636 5639 5645 5652 5657 5659 5660 5661 5663 5665 5667 5669 5668 5664 5665 5672 5679 5683 5686 5689 5688 5687 5687 5688 5690 5692 5694 5694 5695
5555 5560 5567 5574 5582 5590 5597 5603 5607 5613 5622 5628 5631 5634 5637 5642 5648 5651 5652 5653 5657 5659 5660 5661 5663 5665 5663 5660 5661 5666 5674 5681 5685 5685 5684 5685 5685 5686 5689 5691 5692 5693
5550 5556 5561 5568 5576 5584 5591 5597 5602 5608 5617 5624 5628 5630 5634 5640 5644 5646 5647 5649 5654 5657 5657 5656 5658 5660 5660 5658 5656 5657 5662 5673 5680 5681 5681 5683 5684 5685 5687 5689 5691 5692
5542 5548 5554 5561 5569 5577 5584 5591 5598 5604 5610 5618 5623 5626 5630 5637 5641 5642 5644 5647 5652 5655 5654 5655 5656 5656 5656 5655 5655 5652 5653 5658 5669 5676 5679 5681 5682 5684 5686 5688 5690 5692
5533 5539 5546 5554 5562 5571 5578 5584 5592 5598 5603 5608 5614 5618 5625 5632 5636 5638 5640 5643 5648 5652 5653 5654 5656 5657 5657 5657 5656 5654 5651 5651 5656 5664 5670 5671 5673 5677 5680 5684 5688 5690
5526 5532 5538 5546 5554 5562 5570 5577 5585 5593 5597 5601 5605 5610 5616 5623 5628 5632 5635 5639 5643 5648 5651 5654 5656 5658 5660 5662 5661 5657 5653 5651 5652 5655 5658 5659 5661 5665 5668 5673 5679 5685
5520 5526 5532 5539 5546 5552 5559 5568 5577 5587 5593 5597 5600 5604 5610 5616 5621 5624 5628 5635 5641 5645 5649 5652 5655 5658 5662 5664 5665 5660 5654 5653 5655 5658 5658 5656 5656 5659 5661 5663 5667 5671
5514 5519 5525 5531 5537 5543 5550 5558 5567 5578 5587 5594 5598 5602 5608 5613 5616 5617 5621 5628 5636 5642 5646 5647 5649 5653 5656 5661 5664 5661 5655 5654 5656 5657 5657 5655 5654 5656 5658 5661 5662 5664
5507 5513 5518 5523 5529 5536 5544 5550 5558 5568 5578 5587 5593 5599 5605 5610 5613 5614 5615 5619 5626 5633 5640 5643 5645 5648 5650 5654 5658 5659 5656 5655 5653 5652 5652 5652 5651 5653 5655 5658 5661 5661